| time (UTC) | temp C | wind direction | speed KPH | gust KPH | rain 1hr cm | rain 24hr cm | rain mn cm | humidity % | barometer mb |
| 20260510045313 | 10 | 248 | 0.0 | 0.0 | 0.00 | 0.61 | 0.61 | 99 | 1012.0 |
| 20260510044811 | 10 | 248 | 1.6 | 1.6 | 0.00 | 0.61 | 0.61 | 99 | 1011.8 |
| 20260510044308 | 10 | 249 | 0.0 | 1.6 | 0.00 | 0.61 | 0.61 | 98 | 1012.0 |
| 20260510043804 | 10 | 251 | 1.6 | 1.6 | 0.00 | 0.61 | 0.61 | 98 | 1012.0 |
| 20260510043255 | 10 | 243 | 0.0 | 0.0 | 0.00 | 0.61 | 0.61 | 98 | 1011.8 |
| 20260510042752 | 11 | 243 | 0.0 | 1.6 | 0.00 | 0.61 | 0.61 | 98 | 1012.0 |
| 20260510042247 | 11 | 251 | 1.6 | 1.6 | 0.00 | 0.61 | 0.61 | 98 | 1012.1 |
| 20260510041744 | 11 | 243 | 0.0 | 0.0 | 0.00 | 0.61 | 0.61 | 97 | 1012.0 |
| 20260510041241 | 11 | 236 | 0.0 | 0.0 | 0.00 | 0.61 | 0.61 | 97 | 1012.0 |
| 20260510040738 | 12 | 256 | 1.6 | 1.6 | 0.00 | 0.61 | 0.61 | 96 | 1011.8 |
| 20260510040230 | 12 | 255 | 3.2 | 3.2 | 0.00 | 0.61 | 0.61 | 96 | 1012.0 |
| 20260510035725 | 12 | 215 | 1.6 | 1.6 | 0.00 | 0.61 | 0.61 | 95 | 1012.1 |
| 20260510035221 | 12 | 223 | 1.6 | 3.2 | 0.00 | 0.61 | 0.61 | 95 | 1012.3 |
| 20260510034717 | 11 | 122 | 4.8 | 4.8 | 0.00 | 0.61 | 0.61 | 99 | 1012.3 |
| 20260510034216 | 11 | 257 | 1.6 | 3.2 | 0.00 | 0.61 | 0.61 | 99 | 1012.1 |
| 20260510033711 | 10 | 254 | 0.0 | 0.0 | 0.00 | 0.61 | 0.61 | 99 | 1011.9 |
| 20260510033210 | 10 | 256 | 1.6 | 1.6 | 0.00 | 0.61 | 0.61 | 99 | 1011.7 |
| 20260510032705 | 10 | 284 | 3.2 | 4.8 | 0.00 | 0.61 | 0.61 | 99 | 1011.7 |
| 20260510032201 | 9 | 262 | 3.2 | 3.2 | 0.00 | 0.61 | 0.61 | 99 | 1011.6 |
| 20260510031655 | 8 | 249 | 1.6 | 1.6 | 0.00 | 0.61 | 0.61 | 99 | 1011.2 |
| 20260510031152 | 8 | 248 | 0.0 | 1.6 | 0.00 | 0.61 | 0.61 | 99 | 1011.2 |
| 20260510030646 | 8 | 248 | 0.0 | 0.0 | 0.00 | 0.61 | 0.61 | 99 | 1011.2 |
| 20260510030145 | 8 | 248 | 0.0 | 0.0 | 0.00 | 0.61 | 0.61 | 99 | 1011.2 |
| 20260510025642 | 8 | 248 | 0.0 | 0.0 | 0.00 | 0.61 | 0.61 | 99 | 1011.3 |
| 20260510025139 | 8 | 249 | 1.6 | 1.6 | 0.00 | 0.61 | 0.61 | 99 | 1011.1 |
| 20260510024636 | 8 | 248 | 0.0 | 0.0 | 0.00 | 0.61 | 0.61 | 99 | 1011.3 |
| 20260510024132 | 8 | 248 | 0.0 | 0.0 | 0.00 | 0.61 | 0.61 | 99 | 1011.2 |
| 20260510023628 | 8 | 248 | 0.0 | 1.6 | 0.00 | 0.61 | 0.61 | 99 | 1011.1 |
| 20260510023126 | 8 | 249 | 0.0 | 0.0 | 0.00 | 0.61 | 0.61 | 99 | 1011.0 |
| 20260510022625 | 8 | 249 | 0.0 | 0.0 | 0.00 | 0.61 | 0.61 | 99 | 1011.1 |
| 20260510022120 | 8 | 249 | 1.6 | 1.6 | 0.00 | 0.61 | 0.61 | 99 | 1011.1 |
| 20260510021611 | 8 | 249 | 1.6 | 1.6 | 0.00 | 0.61 | 0.61 | 99 | 1011.0 |
| 20260510021108 | 8 | 249 | 0.0 | 1.6 | 0.00 | 0.61 | 0.61 | 99 | 1010.6 |
| 20260510020602 | 8 | 249 | 1.6 | 1.6 | 0.00 | 0.61 | 0.61 | 99 | 1010.9 |
| 20260510020058 | 8 | 249 | 0.0 | 0.0 | 0.00 | 0.61 | 0.61 | 99 | 1010.7 |
| 20260510015554 | 8 | 249 | 0.0 | 1.6 | 0.00 | 0.61 | 0.61 | 99 | 1011.0 |
| 20260510015050 | 8 | 248 | 0.0 | 1.6 | 0.00 | 0.61 | 0.61 | 98 | 1010.9 |
| 20260510014546 | 8 | 249 | 1.6 | 1.6 | 0.00 | 0.61 | 0.61 | 98 | 1010.5 |
| 20260510014043 | 9 | 248 | 1.6 | 1.6 | 0.00 | 0.61 | 0.61 | 98 | 1010.5 |
| 20260510013532 | 9 | 248 | 0.0 | 0.0 | 0.00 | 0.61 | 0.61 | 98 | 1010.4 |
| 20260510013028 | 9 | 248 | 0.0 | 0.0 | 0.00 | 0.61 | 0.61 | 97 | 1010.2 |
| 20260510012522 | 10 | 248 | 0.0 | 0.0 | 0.00 | 0.61 | 0.61 | 97 | 1010.4 |
| 20260510012019 | 10 | 248 | 0.0 | 0.0 | 0.00 | 0.61 | 0.61 | 97 | 1010.3 |
| 20260510011519 | 10 | 249 | 1.6 | 1.6 | 0.00 | 0.61 | 0.61 | 97 | 1010.2 |
| 20260510011014 | 10 | 249 | 1.6 | 1.6 | 0.00 | 0.61 | 0.61 | 96 | 1010.2 |
| 20260510010512 | 10 | 248 | 0.0 | 0.0 | 0.00 | 0.61 | 0.61 | 96 | 1010.0 |
| 20260510010009 | 10 | 248 | 0.0 | 0.0 | 0.00 | 0.61 | 0.61 | 95 | 1010.1 |
| 20260510005504 | 10 | 248 | 0.0 | 0.0 | 0.00 | 0.61 | 0.61 | 95 | 1010.2 |
| 20260510005002 | 11 | 248 | 0.0 | 1.6 | 0.00 | 0.61 | 0.61 | 94 | 1010.2 |
| 20260510004459 | 11 | 248 | 1.6 | 1.6 | 0.00 | 0.61 | 0.61 | 94 | 1010.1 |
| 20260510003957 | 11 | 248 | 0.0 | 0.0 | 0.00 | 0.61 | 0.61 | 94 | 1009.8 |
| 20260510003454 | 11 | 248 | 0.0 | 0.0 | 0.00 | 0.61 | 0.61 | 93 | 1009.6 |
| 20260510002949 | 11 | 248 | 0.0 | 0.0 | 0.00 | 0.61 | 0.61 | 93 | 1009.8 |
| 20260510002445 | 12 | 248 | 1.6 | 1.6 | 0.00 | 0.61 | 0.61 | 92 | 1009.8 |
| 20260510001942 | 12 | 248 | 0.0 | 0.0 | 0.00 | 0.61 | 0.61 | 92 | 1009.8 |
| 20260510001439 | 12 | 248 | 1.6 | 1.6 | 0.00 | 0.61 | 0.61 | 91 | 1009.5 |
| 20260510000937 | 13 | 248 | 1.6 | 1.6 | 0.00 | 0.61 | 0.61 | 89 | 1009.6 |
| 20260510000433 | 13 | 248 | 3.2 | 3.2 | 0.00 | 0.61 | 0.61 | 87 | 1009.6 |
| 20260509235929 | 13 | 247 | 1.6 | 1.6 | 0.00 | 0.61 | 0.61 | 85 | 1009.5 |
| 20260509235426 | 14 | 248 | 3.2 | 3.2 | 0.00 | 0.61 | 0.61 | 84 | 1009.4 |
| 20260509234922 | 15 | 252 | 3.2 | 3.2 | 0.00 | 0.61 | 0.61 | 80 | 1009.4 |
| 20260509234419 | 15 | 244 | 0.0 | 1.6 | 0.00 | 0.61 | 0.61 | 79 | 1009.3 |
| 20260509233917 | 16 | 221 | 0.0 | 1.6 | 0.00 | 0.61 | 0.61 | 72 | 1009.3 |
| 20260509233415 | 17 | 220 | 1.6 | 1.6 | 0.00 | 0.61 | 0.61 | 66 | 1009.3 |
| 20260509232910 | 17 | 228 | 3.2 | 4.8 | 0.00 | 0.61 | 0.61 | 64 | 1009.3 |
| 20260509232409 | 17 | 227 | 1.6 | 1.6 | 0.00 | 0.61 | 0.61 | 63 | 1009.4 |
| 20260509231904 | 18 | 239 | 4.8 | 4.8 | 0.00 | 0.61 | 0.61 | 67 | 1009.3 |
| 20260509231401 | 18 | 154 | 4.8 | 6.4 | 0.00 | 0.61 | 0.61 | 58 | 1009.2 |
| 20260509230859 | 18 | 203 | 3.2 | 3.2 | 0.00 | 0.61 | 0.61 | 58 | 1009.1 |
| 20260509230356 | 18 | 224 | 3.2 | 3.2 | 0.00 | 0.61 | 0.61 | 57 | 1009.0 |
| 20260509225851 | 18 | 222 | 3.2 | 3.2 | 0.00 | 0.61 | 0.61 | 57 | 1009.0 |
| 20260509225348 | 19 | 211 | 6.4 | 6.4 | 0.00 | 0.61 | 0.61 | 59 | 1009.3 |
| 20260509224844 | 19 | 190 | 3.2 | 3.2 | 0.00 | 0.61 | 0.61 | 58 | 1009.3 |
| 20260509224340 | 19 | 246 | 6.4 | 6.4 | 0.00 | 0.61 | 0.61 | 61 | 1009.4 |
| 20260509223837 | 19 | 220 | 6.4 | 6.4 | 0.00 | 0.61 | 0.61 | 57 | 1009.5 |
| 20260509223334 | 19 | 226 | 8.0 | 9.7 | 0.00 | 0.61 | 0.61 | 56 | 1009.4 |
| 20260509222831 | 20 | 142 | 14.5 | 16.1 | 0.00 | 0.61 | 0.61 | 55 | 1009.6 |
| 20260509222326 | 20 | 250 | 0.0 | 1.6 | 0.00 | 0.61 | 0.61 | 55 | 1009.6 |
| 20260509221821 | 19 | 235 | 1.6 | 1.6 | 0.00 | 0.61 | 0.61 | 55 | 1009.4 |
| 20260509221320 | 20 | 216 | 3.2 | 3.2 | 0.00 | 0.61 | 0.61 | 57 | 1009.4 |
| 20260509220819 | 20 | 265 | 6.4 | 14.5 | 0.00 | 0.61 | 0.61 | 56 | 1009.6 |
| 20260509220316 | 20 | 222 | 0.0 | 1.6 | 0.00 | 0.61 | 0.61 | 56 | 1009.5 |
| 20260509215811 | 20 | 187 | 6.4 | 6.4 | 0.00 | 0.61 | 0.61 | 55 | 1009.3 |
| 20260509215308 | 20 | 181 | 8.0 | 9.7 | 0.00 | 0.61 | 0.61 | 55 | 1009.5 |
| 20260509214805 | 19 | 190 | 6.4 | 6.4 | 0.00 | 0.61 | 0.61 | 57 | 1009.6 |
| 20260509214302 | 20 | 222 | 1.6 | 3.2 | 0.00 | 0.61 | 0.61 | 57 | 1009.8 |
| 20260509213759 | 19 | 229 | 1.6 | 1.6 | 0.00 | 0.61 | 0.61 | 58 | 1009.8 |
| 20260509213255 | 19 | 224 | 6.4 | 9.7 | 0.00 | 0.61 | 0.61 | 55 | 1009.8 |
| 20260509212753 | 20 | 208 | 6.4 | 9.7 | 0.00 | 0.61 | 0.61 | 56 | 1009.8 |
| 20260509212250 | 19 | 200 | 4.8 | 6.4 | 0.00 | 0.61 | 0.61 | 57 | 1009.7 |
| 20260509211745 | 20 | 224 | 1.6 | 1.6 | 0.00 | 0.61 | 0.61 | 57 | 1009.6 |
| 20260509211242 | 19 | 241 | 3.2 | 4.8 | 0.00 | 0.61 | 0.61 | 56 | 1009.5 |
| 20260509210738 | 19 | 232 | 3.2 | 3.2 | 0.00 | 0.61 | 0.61 | 57 | 1009.5 |
| 20260509210236 | 19 | 140 | 12.9 | 16.1 | 0.00 | 0.61 | 0.61 | 56 | 1009.8 |
| 20260509205735 | 20 | 207 | 3.2 | 6.4 | 0.00 | 0.61 | 0.61 | 56 | 1009.7 |
| 20260509205230 | 20 | 228 | 1.6 | 3.2 | 0.00 | 0.61 | 0.61 | 56 | 1009.7 |
| 20260509204726 | 20 | 197 | 6.4 | 6.4 | 0.00 | 0.61 | 0.61 | 55 | 1010.0 |
| 20260509204223 | 20 | 223 | 3.2 | 4.8 | 0.00 | 0.61 | 0.61 | 55 | 1009.8 |
| 20260509203719 | 20 | 182 | 6.4 | 9.7 | 0.00 | 0.61 | 0.61 | 55 | 1009.9 |
| 20260509203217 | 20 | 230 | 1.6 | 1.6 | 0.00 | 0.61 | 0.61 | 58 | 1009.9 |
| 20260509202713 | 20 | 299 | 6.4 | 9.7 | 0.00 | 0.61 | 0.61 | 57 | 1010.0 |
| 20260509202208 | 18 | 172 | 4.8 | 4.8 | 0.00 | 0.61 | 0.61 | 61 | 1009.7 |
| 20260509201703 | 18 | 213 | 3.2 | 4.8 | 0.00 | 0.61 | 0.61 | 63 | 1009.9 |
| 20260509201200 | 19 | 216 | 4.8 | 6.4 | 0.00 | 0.61 | 0.61 | 61 | 1009.9 |
| 20260509200656 | 20 | 223 | 6.4 | 9.7 | 0.00 | 0.61 | 0.61 | 60 | 1010.1 |
| 20260509200152 | 19 | 262 | 4.8 | 4.8 | 0.00 | 0.61 | 0.61 | 60 | 1010.1 |
| 20260509195648 | 18 | 181 | 3.2 | 4.8 | 0.00 | 0.61 | 0.61 | 62 | 1010.1 |
| 20260509195143 | 18 | 198 | 1.6 | 3.2 | 0.00 | 0.61 | 0.61 | 64 | 1010.1 |
| 20260509194642 | 19 | 187 | 6.4 | 9.7 | 0.00 | 0.61 | 0.61 | 63 | 1010.2 |
| 20260509194140 | 18 | 199 | 3.2 | 4.8 | 0.00 | 0.61 | 0.61 | 66 | 1010.3 |
| 20260509193635 | 18 | 164 | 6.4 | 6.4 | 0.00 | 0.61 | 0.61 | 66 | 1010.2 |
| 20260509193126 | 18 | 139 | 8.0 | 11.3 | 0.00 | 0.61 | 0.61 | 65 | 1010.5 |
| 20260509192623 | 18 | 191 | 3.2 | 4.8 | 0.00 | 0.61 | 0.61 | 68 | 1010.6 |
| 20260509192117 | 18 | 169 | 8.0 | 9.7 | 0.00 | 0.61 | 0.61 | 68 | 1010.6 |
| 20260509191612 | 18 | 173 | 4.8 | 4.8 | 0.00 | 0.61 | 0.61 | 69 | 1010.5 |
| 20260509191109 | 18 | 167 | 6.4 | 9.7 | 0.00 | 0.61 | 0.61 | 69 | 1010.7 |
| 20260509190606 | 17 | 176 | 4.8 | 4.8 | 0.00 | 0.61 | 0.61 | 70 | 1010.9 |
| 20260509190103 | 17 | 230 | 3.2 | 4.8 | 0.00 | 0.61 | 0.61 | 71 | 1010.7 |
| 20260509185601 | 17 | 157 | 4.8 | 6.4 | 0.00 | 0.61 | 0.61 | 71 | 1010.9 |
| 20260509185056 | 16 | 240 | 1.6 | 1.6 | 0.00 | 0.61 | 0.61 | 73 | 1010.9 |
| 20260509184555 | 17 | 233 | 1.6 | 1.6 | 0.00 | 0.61 | 0.61 | 71 | 1011.0 |
| 20260509184051 | 16 | 198 | 3.2 | 3.2 | 0.00 | 0.61 | 0.61 | 72 | 1010.9 |
| 20260509183547 | 17 | 275 | 6.4 | 6.4 | 0.00 | 0.61 | 0.61 | 70 | 1011.0 |
| 20260509183043 | 17 | 185 | 4.8 | 6.4 | 0.00 | 0.61 | 0.61 | 71 | 1010.9 |
| 20260509182539 | 17 | 163 | 6.4 | 9.7 | 0.00 | 0.61 | 0.61 | 70 | 1011.1 |
| 20260509182031 | 17 | 233 | 1.6 | 1.6 | 0.00 | 0.61 | 0.61 | 77 | 1011.1 |
| 20260509181529 | 16 | 200 | 3.2 | 3.2 | 0.00 | 0.61 | 0.61 | 72 | 1010.9 |
| 20260509181026 | 16 | 188 | 9.7 | 14.5 | 0.00 | 0.61 | 0.61 | 77 | 1011.0 |
| 20260509180521 | 16 | 229 | 4.8 | 6.4 | 0.00 | 0.61 | 0.61 | 78 | 1011.1 |
| 20260509180019 | 16 | 208 | 1.6 | 1.6 | 0.00 | 0.61 | 0.61 | 79 | 1011.0 |
| 20260509175514 | 15 | 172 | 4.8 | 4.8 | 0.00 | 0.61 | 0.61 | 79 | 1011.1 |
| 20260509175011 | 15 | 207 | 1.6 | 1.6 | 0.00 | 0.61 | 0.61 | 80 | 1011.2 |
| 20260509174508 | 15 | 219 | 1.6 | 1.6 | 0.00 | 0.61 | 0.61 | 81 | 1011.2 |
| 20260509174002 | 15 | 248 | 1.6 | 1.6 | 0.00 | 0.61 | 0.61 | 81 | 1011.2 |
| 20260509173457 | 15 | 211 | 3.2 | 3.2 | 0.00 | 0.61 | 0.61 | 83 | 1011.2 |
| 20260509172954 | 15 | 208 | 3.2 | 3.2 | 0.00 | 0.61 | 0.61 | 84 | 1011.2 |
| 20260509172451 | 15 | 233 | 3.2 | 4.8 | 0.00 | 0.61 | 0.61 | 85 | 1011.1 |
| 20260509171946 | 14 | 198 | 1.6 | 1.6 | 0.00 | 0.61 | 0.61 | 86 | 1010.7 |
| 20260509171442 | 14 | 224 | 1.6 | 3.2 | 0.00 | 0.61 | 0.61 | 87 | 1011.0 |
| 20260509170939 | 14 | 237 | 0.0 | 0.0 | 0.00 | 0.61 | 0.61 | 87 | 1011.0 |
| 20260509170435 | 14 | 246 | 1.6 | 1.6 | 0.00 | 0.61 | 0.61 | 91 | 1011.0 |
| 20260509165930 | 14 | 229 | 0.0 | 0.0 | 0.00 | 0.61 | 0.61 | 90 | 1010.9 |
| 20260509165425 | 13 | 233 | 0.0 | 0.0 | 0.00 | 0.61 | 0.61 | 91 | 1010.7 |
| 20260509164921 | 13 | 227 | 1.6 | 1.6 | 0.00 | 0.61 | 0.61 | 93 | 1010.6 |
| 20260509164417 | 13 | 214 | 1.6 | 3.2 | 0.00 | 0.61 | 0.61 | 93 | 1010.7 |
| 20260509163913 | 13 | 207 | 3.2 | 3.2 | 0.00 | 0.61 | 0.61 | 94 | 1010.6 |
| 20260509163410 | 12 | 209 | 3.2 | 4.8 | 0.00 | 0.61 | 0.61 | 95 | 1010.6 |
| 20260509162909 | 12 | 215 | 3.2 | 3.2 | 0.00 | 0.61 | 0.61 | 96 | 1010.7 |
| 20260509162408 | 12 | 222 | 0.0 | 0.0 | 0.00 | 0.61 | 0.61 | 95 | 1010.9 |
| 20260509161904 | 12 | 218 | 1.6 | 1.6 | 0.00 | 0.61 | 0.61 | 95 | 1011.1 |
| 20260509161400 | 12 | 218 | 1.6 | 3.2 | 0.00 | 0.61 | 0.61 | 96 | 1010.9 |
| 20260509160856 | 12 | 203 | 1.6 | 3.2 | 0.00 | 0.61 | 0.61 | 97 | 1010.4 |
| 20260509160352 | 12 | 216 | 0.0 | 1.6 | 0.00 | 0.61 | 0.61 | 98 | 1010.6 |
| 20260509155847 | 12 | 216 | 1.6 | 1.6 | 0.18 | 0.61 | 0.61 | 98 | 1010.6 |
| 20260509155344 | 12 | 220 | 0.0 | 0.0 | 0.18 | 0.61 | 0.61 | 98 | 1010.9 |
| 20260509154840 | 12 | 220 | 0.0 | 0.0 | 0.00 | 0.58 | 0.58 | 98 | 1010.9 |
| 20260509154337 | 12 | 220 | 0.0 | 1.6 | 0.00 | 0.58 | 0.58 | 97 | 1010.9 |
| 20260509153833 | 12 | 216 | 1.6 | 1.6 | 0.00 | 0.58 | 0.58 | 97 | 1011.0 |
| 20260509153331 | 12 | 210 | 4.8 | 6.4 | 0.00 | 0.58 | 0.58 | 97 | 1010.9 |
| 20260509152827 | 12 | 172 | 8.0 | 9.7 | 0.00 | 0.58 | 0.58 | 96 | 1010.9 |
| 20260509152323 | 12 | 223 | 1.6 | 1.6 | 0.00 | 0.58 | 0.58 | 96 | 1010.9 |
| 20260509151821 | 12 | 214 | 4.8 | 4.8 | 0.00 | 0.58 | 0.58 | 96 | 1010.6 |
| 20260509151316 | 12 | 224 | 0.0 | 1.6 | 0.00 | 0.58 | 0.58 | 97 | 1010.9 |
| 20260509150816 | 12 | 221 | 1.6 | 1.6 | 0.00 | 0.58 | 0.58 | 97 | 1010.6 |
| 20260509150313 | 12 | 223 | 4.8 | 4.8 | 0.00 | 0.58 | 0.58 | 98 | 1010.7 |
| 20260509145810 | 12 | 227 | 1.6 | 3.2 | 0.00 | 0.58 | 0.58 | 98 | 1011.0 |
| 20260509145309 | 11 | 201 | 3.2 | 4.8 | 0.00 | 0.58 | 0.58 | 98 | 1011.0 |
| 20260509144806 | 11 | 225 | 1.6 | 3.2 | 0.00 | 0.58 | 0.58 | 99 | 1011.1 |
| 20260509144303 | 11 | 158 | 6.4 | 9.7 | 0.00 | 0.58 | 0.58 | 98 | 1011.0 |
| 20260509143801 | 11 | 229 | 1.6 | 1.6 | 0.00 | 0.58 | 0.58 | 99 | 1011.3 |
| 20260509143258 | 11 | 223 | 1.6 | 3.2 | 0.00 | 0.58 | 0.58 | 98 | 1011.1 |
| 20260509142753 | 11 | 176 | 3.2 | 4.8 | 0.13 | 0.58 | 0.58 | 99 | 1011.5 |
| 20260509141109 | 11 | 218 | 1.6 | 1.6 | 0.18 | 0.56 | 0.56 | 99 | 1011.2 |
| 20260509140606 | 11 | 218 | 1.6 | 1.6 | 0.18 | 0.56 | 0.56 | 99 | 1011.2 |
| 20260509140104 | 11 | 221 | 1.6 | 3.2 | 0.18 | 0.56 | 0.56 | 99 | 1011.3 |
| 20260509135601 | 11 | 211 | 3.2 | 3.2 | 0.13 | 0.53 | 0.53 | 99 | 1011.4 |
| 20260509135059 | 11 | 211 | 3.2 | 3.2 | 0.13 | 0.53 | 0.53 | 99 | 1011.4 |
| 20260509134555 | 11 | 213 | 1.6 | 3.2 | 0.13 | 0.53 | 0.53 | 99 | 1011.5 |
| 20260509134053 | 11 | 226 | 0.0 | 0.0 | 0.13 | 0.53 | 0.53 | 99 | 1011.4 |
| 20260509133550 | 11 | 227 | 0.0 | 1.6 | 0.00 | 0.51 | 0.51 | 99 | 1011.3 |
| 20260509133048 | 11 | 206 | 3.2 | 3.2 | 0.00 | 0.51 | 0.51 | 99 | 1011.5 |
| 20260509132546 | 11 | 223 | 1.6 | 1.6 | 0.18 | 0.51 | 0.51 | 99 | 1011.4 |
| 20260509132044 | 11 | 230 | 0.0 | 0.0 | 0.18 | 0.51 | 0.51 | 99 | 1011.6 |
| 20260509131539 | 11 | 226 | 0.0 | 0.0 | 0.13 | 0.48 | 0.48 | 99 | 1011.5 |
| 20260509131036 | 10 | 235 | 1.6 | 1.6 | 0.13 | 0.48 | 0.48 | 99 | 1011.5 |
| 20260509130531 | 10 | 230 | 0.0 | 0.0 | 0.00 | 0.46 | 0.46 | 99 | 1011.4 |
| 20260509130023 | 10 | 237 | 0.0 | 0.0 | 0.18 | 0.46 | 0.46 | 99 | 1011.6 |
| 20260509125520 | 10 | 208 | 1.6 | 3.2 | 0.18 | 0.46 | 0.46 | 99 | 1011.6 |
| 20260509125016 | 10 | 225 | 0.0 | 0.0 | 0.13 | 0.43 | 0.43 | 99 | 1011.7 |
| 20260509124513 | 10 | 238 | 0.0 | 0.0 | 0.13 | 0.43 | 0.43 | 99 | 1011.6 |
| 20260509124010 | 10 | 220 | 3.2 | 3.2 | 0.13 | 0.43 | 0.43 | 99 | 1011.9 |
| 20260509123508 | 10 | 231 | 0.0 | 0.0 | 0.18 | 0.41 | 0.41 | 99 | 1011.5 |
| 20260509123004 | 10 | 229 | 0.0 | 0.0 | 0.00 | 0.38 | 0.38 | 99 | 1011.7 |
| 20260509122501 | 10 | 236 | 0.0 | 0.0 | 0.13 | 0.38 | 0.38 | 99 | 1011.8 |
| 20260509121958 | 10 | 228 | 0.0 | 0.0 | 0.13 | 0.38 | 0.38 | 99 | 1011.7 |
| 20260509121454 | 10 | 231 | 0.0 | 0.0 | 0.18 | 0.36 | 0.36 | 99 | 1011.8 |
| 20260509120952 | 10 | 237 | 0.0 | 1.6 | 0.18 | 0.36 | 0.36 | 99 | 1011.6 |
| 20260509120450 | 10 | 232 | 0.0 | 0.0 | 0.13 | 0.33 | 0.33 | 99 | 1011.7 |
| 20260509115948 | 10 | 245 | 0.0 | 0.0 | 0.30 | 0.33 | 0.33 | 99 | 1011.6 |
| 20260509115445 | 10 | 237 | 0.0 | 0.0 | 0.18 | 0.30 | 0.30 | 99 | 1011.8 |
| 20260509114942 | 10 | 231 | 0.0 | 0.0 | 0.00 | 0.28 | 0.28 | 99 | 1011.7 |
| 20260509114440 | 10 | 230 | 0.0 | 0.0 | 0.18 | 0.28 | 0.28 | 99 | 1011.5 |
| 20260509113940 | 10 | 237 | 0.0 | 0.0 | 0.18 | 0.28 | 0.28 | 99 | 1011.5 |
| 20260509113436 | 10 | 237 | 0.0 | 0.0 | 0.00 | 0.25 | 0.25 | 99 | 1011.5 |
| 20260509112933 | 10 | 240 | 1.6 | 1.6 | 0.13 | 0.25 | 0.25 | 99 | 1011.4 |
| 20260509112431 | 10 | 222 | 3.2 | 3.2 | 0.13 | 0.25 | 0.25 | 99 | 1011.6 |
| 20260509111927 | 10 | 230 | 0.0 | 1.6 | 0.00 | 0.23 | 0.23 | 99 | 1011.5 |
| 20260509111425 | 10 | 235 | 0.0 | 0.0 | 0.00 | 0.23 | 0.23 | 99 | 1011.4 |
| 20260509110922 | 10 | 235 | 0.0 | 0.0 | 0.00 | 0.23 | 0.23 | 99 | 1011.5 |
| 20260509110418 | 10 | 234 | 0.0 | 0.0 | 0.00 | 0.23 | 0.23 | 99 | 1011.5 |
| 20260509105916 | 10 | 234 | 0.0 | 0.0 | 0.00 | 0.23 | 0.23 | 99 | 1011.5 |
| 20260509105414 | 10 | 234 | 0.0 | 0.0 | 0.00 | 0.23 | 0.23 | 99 | 1011.4 |
| 20260509104911 | 10 | 234 | 0.0 | 0.0 | 0.18 | 0.23 | 0.23 | 99 | 1011.5 |
| 20260509104408 | 10 | 234 | 0.0 | 0.0 | 0.18 | 0.23 | 0.23 | 99 | 1011.3 |
| 20260509103905 | 10 | 234 | 0.0 | 0.0 | 0.00 | 0.20 | 0.20 | 99 | 1011.1 |
| 20260509103402 | 10 | 233 | 0.0 | 0.0 | 0.00 | 0.20 | 0.20 | 99 | 1011.2 |
| 20260509102901 | 10 | 234 | 0.0 | 0.0 | 0.00 | 0.20 | 0.20 | 99 | 1011.4 |
| 20260509102358 | 10 | 234 | 0.0 | 0.0 | 0.00 | 0.20 | 0.20 | 99 | 1011.3 |
| 20260509101853 | 10 | 233 | 0.0 | 0.0 | 0.13 | 0.20 | 0.20 | 99 | 1011.3 |
| 20260509101350 | 10 | 234 | 0.0 | 0.0 | 0.13 | 0.20 | 0.20 | 99 | 1011.4 |
| 20260509100848 | 10 | 232 | 0.0 | 0.0 | 0.00 | 0.18 | 0.18 | 99 | 1011.3 |
| 20260509100345 | 10 | 235 | 0.0 | 0.0 | 0.00 | 0.18 | 0.18 | 99 | 1011.3 |
| 20260509095841 | 10 | 235 | 0.0 | 0.0 | 0.00 | 0.18 | 0.18 | 99 | 1011.5 |
| 20260509095339 | 10 | 235 | 0.0 | 0.0 | 0.18 | 0.18 | 0.18 | 99 | 1011.5 |
| 20260509094836 | 10 | 233 | 0.0 | 0.0 | 0.18 | 0.18 | 0.18 | 99 | 1011.6 |
| 20260509094332 | 10 | 222 | 0.0 | 0.0 | 0.00 | 0.15 | 0.15 | 99 | 1011.5 |
| 20260509093830 | 10 | 222 | 0.0 | 0.0 | 0.13 | 0.15 | 0.15 | 99 | 1011.6 |
| 20260509093327 | 10 | 222 | 0.0 | 0.0 | 0.13 | 0.15 | 0.15 | 98 | 1011.5 |
| 20260509092826 | 10 | 222 | 0.0 | 0.0 | 0.00 | 0.13 | 0.13 | 98 | 1011.6 |
| 20260509092323 | 10 | 222 | 0.0 | 0.0 | 0.18 | 0.13 | 0.13 | 97 | 1011.7 |
| 20260509091821 | 10 | 222 | 0.0 | 0.0 | 0.18 | 0.13 | 0.13 | 96 | 1011.8 |
| 20260509091317 | 10 | 219 | 1.6 | 1.6 | 0.00 | 0.10 | 0.10 | 96 | 1011.9 |
| 20260509090815 | 10 | 217 | 1.6 | 1.6 | 0.13 | 0.10 | 0.10 | 95 | 1011.9 |
| 20260509090312 | 10 | 232 | 1.6 | 1.6 | 0.13 | 0.10 | 0.10 | 97 | 1012.0 |
| 20260509085809 | 10 | 227 | 1.6 | 3.2 | 0.13 | 0.10 | 0.10 | 96 | 1011.9 |
| 20260509085307 | 10 | 233 | 0.0 | 0.0 | 0.18 | 0.08 | 0.08 | 96 | 1012.0 |
| 20260509084803 | 10 | 223 | 3.2 | 3.2 | 0.18 | 0.08 | 0.08 | 96 | 1012.1 |
| 20260509084300 | 10 | 235 | 0.0 | 0.0 | 0.18 | 0.08 | 0.08 | 96 | 1012.1 |
| 20260509083758 | 10 | 235 | 0.0 | 1.6 | 0.00 | 0.05 | 0.05 | 95 | 1012.0 |
| 20260509083254 | 10 | 225 | 0.0 | 0.0 | 0.00 | 0.05 | 0.05 | 96 | 1012.3 |
| 20260509082750 | 10 | 239 | 1.6 | 1.6 | 0.13 | 0.05 | 0.05 | 94 | 1012.3 |
| 20260509082247 | 11 | 220 | 0.0 | 1.6 | 0.13 | 0.05 | 0.05 | 92 | 1012.2 |
| 20260509081744 | 11 | 226 | 1.6 | 1.6 | 0.00 | 0.03 | 0.03 | 90 | 1012.1 |
| 20260509081242 | 11 | 226 | 1.6 | 3.2 | 0.18 | 0.03 | 0.03 | 88 | 1012.0 |
| 20260509080740 | 12 | 268 | 1.6 | 1.6 | 0.18 | 0.03 | 0.03 | 84 | 1012.0 |
| 20260509080237 | 11 | 230 | 1.6 | 1.6 | 0.00 | 0.00 | 0.00 | 87 | 1012.0 |
| 20260509075735 | 11 | 223 | 1.6 | 3.2 | 0.00 | 0.00 | 0.00 | 85 | 1012.0 |
| 20260509075232 | 10 | 194 | 0.0 | 1.6 | 0.00 | 0.00 | 0.00 | 93 | 1011.8 |
| 20260509074729 | 9 | 248 | 3.2 | 3.2 | 0.00 | 0.00 | 0.00 | 99 | 1011.5 |
| 20260509074227 | 9 | 227 | 0.0 | 0.0 | 0.00 | 0.00 | 0.00 | 99 | 1011.7 |
| 20260509073723 | 9 | 232 | 0.0 | 0.0 | 0.00 | 0.00 | 0.00 | 99 | 1011.4 |
| 20260509073219 | 8 | 232 | 0.0 | 0.0 | 0.00 | 0.00 | 0.00 | 99 | 1011.3 |
| 20260509072716 | 8 | 232 | 0.0 | 0.0 | 0.00 | 0.00 | 0.00 | 99 | 1011.1 |
| 20260509072213 | 8 | 223 | 0.0 | 0.0 | 0.00 | 0.00 | 0.00 | 99 | 1011.0 |
| 20260509071709 | 8 | 186 | 4.8 | 4.8 | 0.00 | 0.00 | 0.00 | 99 | 1010.6 |
| 20260509071207 | 8 | 255 | 0.0 | 0.0 | 0.00 | 0.00 | 0.00 | 99 | 1010.7 |
| 20260509070704 | 8 | 255 | 0.0 | 0.0 | 0.00 | 0.00 | 0.00 | 99 | 1010.7 |
| 20260509070200 | 8 | 255 | 0.0 | 0.0 | 0.00 | 0.00 | 0.00 | 99 | 1010.7 |
| 20260509065656 | 8 | 255 | 0.0 | 0.0 | 0.00 | 0.00 | 0.00 | 99 | 1010.5 |
| 20260509065152 | 8 | 255 | 0.0 | 0.0 | 0.00 | 0.00 | 0.00 | 99 | 1010.4 |
| 20260509064649 | 8 | 255 | 0.0 | 0.0 | 0.00 | 0.00 | 0.00 | 99 | 1010.6 |
| 20260509064147 | 8 | 255 | 0.0 | 0.0 | 0.00 | 0.00 | 0.00 | 99 | 1010.6 |
| 20260509063644 | 8 | 255 | 0.0 | 0.0 | 0.00 | 0.00 | 0.00 | 99 | 1010.7 |
| 20260509063140 | 8 | 255 | 0.0 | 0.0 | 0.00 | 0.00 | 0.00 | 99 | 1010.6 |
| 20260509062638 | 8 | 255 | 0.0 | 0.0 | 0.00 | 0.00 | 0.00 | 99 | 1010.4 |
| 20260509062135 | 8 | 255 | 0.0 | 0.0 | 0.00 | 0.00 | 0.00 | 99 | 1010.7 |
| 20260509061631 | 8 | 255 | 0.0 | 0.0 | 0.00 | 0.00 | 0.00 | 99 | 1011.0 |
| 20260509061129 | 8 | 256 | 0.0 | 0.0 | 0.00 | 0.00 | 0.00 | 99 | 1011.2 |
| 20260509060626 | 8 | 258 | 0.0 | 0.0 | 0.00 | 0.00 | 0.00 | 99 | 1011.0 |
| 20260509060122 | 8 | 255 | 0.0 | 0.0 | 0.00 | 0.00 | 0.00 | 99 | 1011.4 |
| 20260509055618 | 8 | 255 | 0.0 | 0.0 | 0.00 | 0.00 | 0.00 | 99 | 1011.3 |
| 20260509055114 | 8 | 255 | 0.0 | 0.0 | 0.00 | 0.00 | 0.00 | 99 | 1011.2 |
| 20260509054611 | 9 | 255 | 0.0 | 0.0 | 0.00 | 0.00 | 0.00 | 99 | 1011.2 |
| 20260509054109 | 9 | 255 | 0.0 | 0.0 | 0.00 | 0.00 | 0.00 | 99 | 1011.5 |
| 20260509053607 | 9 | 255 | 0.0 | 0.0 | 0.00 | 0.00 | 0.00 | 99 | 1011.8 |
| 20260509053103 | 8 | 255 | 0.0 | 0.0 | 0.00 | 0.00 | 0.00 | 99 | 1011.9 |
| 20260509052601 | 8 | 256 | 1.6 | 1.6 | 0.00 | 0.00 | 0.00 | 99 | 1011.8 |
| 20260509052059 | 8 | 255 | 1.6 | 1.6 | 0.00 | 0.00 | 0.00 | 99 | 1011.8 |
| 20260509051557 | 8 | 255 | 1.6 | 1.6 | 0.00 | 0.00 | 0.00 | 99 | 1011.8 |
| 20260509051053 | 8 | 255 | 0.0 | 0.0 | 0.00 | 0.00 | 0.00 | 99 | 1011.9 |
| 20260509050550 | 8 | 255 | 0.0 | 0.0 | 0.00 | 0.00 | 0.00 | 99 | 1011.8 |
| 20260509050047 | 9 | 255 | 1.6 | 1.6 | 0.00 | 0.00 | 0.00 | 99 | 1011.9 |
| 20260509045544 | 9 | 255 | 0.0 | 0.0 | 0.00 | 0.00 | 0.00 | 99 | 1011.7 |